[TLELIST] Archives

 

[list_settings.list_name] Current TLEs

June 14th 2014 PST

HST 1 20580U 90037B 14165.08730094 .00002026 00000-0 12582-3 0 332 2 20580 028.4707 057.5081 0002843 253.0672 249.2172 15.05447490124253 ISS (ZARYA) 1 25544U 98067A 14165.46537189 .00007480 00000-0 13555-3 0 4873 2 25544 051.6475 113.0693 0004434 101.7689 001.4440 15.50704500890906 CXO 1 25867U 99040B 14165.24932237 -.00000272 00000-0 00000+0 0 283 2 25867 076.8702 320.8309 8118375 274.2524 359.9080 00.37800584 11904 ____________________________________________________________________ These 2-Line ...Continue Reading

[list_settings.list_name] Current TLEs

June 13th 2014 PST

HST 1 20580U 90037B 14163.16633530 .00001902 00000-0 11745-3 0 327 2 20580 028.4706 070.1356 0002834 231.2688 279.6082 15.05438903123966 ISS (ZARYA) 1 25544U 98067A 14164.11346306 .00007260 00000-0 13190-3 0 4795 2 25544 051.6466 119.7737 0004419 096.7211 014.4753 15.50682169890698 CXO 1 25867U 99040B 14165.24932237 -.00000272 00000-0 00000+0 0 283 2 25867 076.8702 320.8309 8118375 274.2524 359.9080 00.37800584 11904 ____________________________________________________________________ These 2-Line ...Continue Reading

[list_settings.list_name] Current TLEs

June 12th 2014 PST

HST 1 20580U 90037B 14163.16633530 .00001902 00000-0 11745-3 0 327 2 20580 028.4706 070.1356 0002834 231.2688 279.6082 15.05438903123966 ISS (ZARYA) 1 25544U 98067A 14163.41034720 .00007401 00000-0 13434-3 0 4755 2 25544 051.6463 123.2606 0004463 095.0916 048.4133 15.50671879890586 CXO 1 25867U 99040B 14165.24932237 -.00000272 00000-0 00000+0 0 283 2 25867 076.8702 320.8309 8118375 274.2524 359.9080 00.37800584 11904 ____________________________________________________________________ These 2-Line ...Continue Reading

[list_settings.list_name] Current TLEs

June 11th 2014 PST

HST 1 20580U 90037B 14162.10176973 .00001548 00000-0 93393-4 0 318 2 20580 028.4708 077.1332 0002845 218.2982 271.6975 15.05435409123807 ISS (ZARYA) 1 25544U 98067A 14162.37732359 .00007240 00000-0 13168-3 0 4689 2 25544 051.6462 128.3825 0004464 092.0654 040.8894 15.50655198890420 CXO 1 25867U 99040B 14162.60383862 -.00000349 00000-0 00000+0 0 278 2 25867 076.8666 320.9466 8122814 274.2576 359.9025 00.37800961 11894 ____________________________________________________________________ These 2-Line ...Continue Reading

[list_settings.list_name] Current TLEs

June 10th 2014 PST

HST 1 20580U 90037B 14160.24494519 .00001414 00000-0 84272-4 0 307 2 20580 028.4706 089.3390 0002884 197.6420 289.3229 15.05428979123525 ISS (ZARYA) 1 25544U 98067A 14161.41112922 .00006434 00000-0 11798-3 0 4615 2 25544 051.6464 133.1730 0004509 087.9302 047.8374 15.50637637890275 CXO 1 25867U 99040B 14162.60383862 -.00000349 00000-0 00000+0 0 278 2 25867 076.8666 320.9466 8122814 274.2576 359.9025 00.37800961 11894 ____________________________________________________________________ These 2-Line ...Continue Reading

[list_settings.list_name] Current TLEs

June 9th 2014 PST

HST 1 20580U 90037B 14159.11519348 .00001243 00000-0 72688-4 0 295 2 20580 028.4705 096.7654 0002911 184.7102 287.4420 15.05423495123355 ISS (ZARYA) 1 25544U 98067A 14160.44571931 .00005717 00000-0 10577-3 0 4545 2 25544 051.6456 137.9657 0004555 084.5784 058.4414 15.50623350890128 CXO 1 25867U 99040B 14159.95950031 -.00000417 00000-0 00000+0 0 265 2 25867 076.8619 321.0716 8125776 274.2671 000.0348 00.37802258 11880 ____________________________________________________________________ These 2-Line ...Continue Reading

[list_settings.list_name] Current TLEs

June 8th 2014 PST

HST 1 20580U 90037B 14159.11519348 .00001243 00000-0 72688-4 0 295 2 20580 028.4705 096.7654 0002911 184.7102 287.4420 15.05423495123355 ISS (ZARYA) 1 25544U 98067A 14159.41787289 .00005126 00000-0 95681-4 0 4471 2 25544 051.6457 143.0623 0004215 079.9252 081.6412 15.50614834889964 CXO 1 25867U 99040B 14159.95950031 -.00000417 00000-0 00000+0 0 265 2 25867 076.8619 321.0716 8125776 274.2671 000.0348 00.37802258 11880 ____________________________________________________________________ These 2-Line ...Continue Reading

[list_settings.list_name] Current TLEs

June 7th 2014 PST

HST 1 20580U 90037B 14157.32906229 .00001401 00000-0 83452-4 0 280 2 20580 028.4703 108.5063 0002986 165.6545 327.4203 15.05417672123084 ISS (ZARYA) 1 25544U 98067A 14158.43940977 .00004476 00000-0 84622-4 0 4400 2 25544 051.6462 147.9054 0004401 077.6926 018.3176 15.50593287889817 CXO 1 25867U 99040B 14159.95950031 -.00000417 00000-0 00000+0 0 265 2 25867 076.8619 321.0716 8125776 274.2671 000.0348 00.37802258 11880 ____________________________________________________________________ These 2-Line ...Continue Reading

[list_settings.list_name] Current TLEs

June 6th 2014 PST

HST 1 20580U 90037B 14156.12909361 .00001226 00000-0 71496-4 0 276 2 20580 028.4701 116.3944 0003034 152.2805 304.7170 15.05415602122893 ISS (ZARYA) 1 25544U 98067A 14157.28602881 .00003950 00000-0 75641-4 0 4330 2 25544 051.6464 153.6252 0004289 074.5934 058.8514 15.50579739889633 CXO 1 25867U 99040B 14159.95950031 -.00000417 00000-0 00000+0 0 265 2 25867 076.8619 321.0716 8125776 274.2671 000.0348 00.37802258 11880 ____________________________________________________________________ These 2-Line ...Continue Reading

[list_settings.list_name] Current TLEs

June 5th 2014 PST

HST 1 20580U 90037B 14156.12909361 .00001226 00000-0 71496-4 0 276 2 20580 028.4701 116.3944 0003034 152.2805 304.7170 15.05415602122893 ISS (ZARYA) 1 25544U 98067A 14156.45209976 .00003839 00000-0 73767-4 0 4272 2 25544 051.6467 157.7595 0004315 071.2101 084.1047 15.50572028889504 CXO 1 25867U 99040B 14157.31512749 -.00000422 00000-0 00000+0 0 269 2 25867 076.8556 321.2056 8127155 274.2875 000.1073 00.37801083 11878 ____________________________________________________________________ These 2-Line ...Continue Reading
  • This mailing list is a public mailing list - anyone may join or leave, at any time.
  • This mailing list is announce-only.

International Space Station (ISS) / Hubble Space Telescope (HST) / Chandra X-Ray Observatory Orbital Data via EMAIL

Privacy Policy:

Private list